Meath Environmental Platform

Observations for Trim Market St

Time AQI Temp °C Hum % Pres Pa CO μg/m³ H₂S μg/m³ NO μg/m³ NO₂ μg/m³ O₃ μg/m³ SO₂ μg/m³ PM1 μg/m³ PM2.5 μg/m³ PM10 μg/m³
Friday 21 August 2026
10:49 2 21.8 46 63,997 0.26 1.37 5.65 15.49 61.69 0 0 2.11 2.32
10:48 2 21.8 46 63,950 0.35 9 4.96 50.46 85.46 0 0 2.12 2.13
10:47 2 21.8 46 63,954 1.6 16.43 2.02 41.67 57.38 0 0 2.64 2.9
10:46 2 21.8 46 63,962 4.21 12.86 1.89 44.89 57.78 0 0 2.12 2.33
10:45 2 21.8 46 63,973 0.16 0.24 1.82 27.78 60.03 0 0 2.12 2.9
10:44 2 21.8 46 63,948 0 2.69 1.81 38.88 96.83 0 0 2.65 3.66
10:43 2 21.8 45 63,948 0.12 3.62 1.7 55.34 90.23 0 0 3.18 4.43
10:42 2 21.8 45 63,985 0.17 6.39 1.82 48.56 72.33 0 1.43 4.22 5.2
10:41 2 21.8 45 64,035 0 6.84 1.73 39.37 132.1 0 0.71 3.19 3.51
10:39 2 21.9 45 64,170 0 0 1.23 14.6 113.96 0 0 2.15 2.37
10:36 2 22 45 64,170 0 0 1.23 12.59 127.41 0 0 2.15 2.36
10:35 2 22 45 64,185 0 0.47 1.31 13.19 70.66 0 0 2.14 2.36
10:30 2 22 45 63,987 0 4.56 1.8 32.65 132.41 0 0 2.68 2.87
10:24 2 22 44 63,719 0.03 12.49 20.95 71.03 69.42 1.98 0 2.18 2.4
10:23 2 22 44 63,744 0.18 13.92 20.89 70.25 81.21 0.34 0.71 3.23 3.55
10:22 2 22.1 44 63,748 0.01 9.29 15.81 45.4 105.63 0 0 2.19 2.41
10:20 2 22.1 44 63,728 0.01 16.11 2.48 87.46 69.46 0 0 2.21 2.43
10:19 2 22.1 43 63,724 0.33 11.12 7.12 49.49 82.87 0.9 0.71 3.26 3.59
10:18 2 22.2 43 63,724 0 9 2.31 45.05 134.69 0 0 2.23 2.46
10:16 2 22.3 42 63,791 0 11.86 1.96 68.71 100.96 0 0 3.31 3.57